Regional Weather Roundup
Issued by NWS Midland/Odessa, TX

Home | Current Version | Previous Version | Text Only | Print | Product List | Glossary On
Versions: 1 2 3 4 5 6 7 8 9 10 11 12 13 14 15 16 17 18 19 20 21 22 23 24 25 26 27 28 29 30 31 32 33 34 35 36 37 38 39 40 41 42 43 44 45 46 47 48 49 50
000
ASUS44 KMAF 251510
RWRMAF
MIDLAND AREA WEATHER ROUNDUP
NATIONAL WEATHER SERVICE MIDLAND TX
1000 AM CDT SAT OCT 25 2014

...IN SOUTHWEST TEXAS AND SOUTHEAST NEW MEXICO...

CITY           SKY/WX    TMP DP  RH WIND       PRES   REMARKS
ALPINE         SUNNY     70  52  53 SW5       30.35R
ANDREWS        FAIR      67  60  77 S9        30.22R
ARTESIA        NOT AVBL
BIG SPRING     SUNNY     67  60  79 S10       30.23R
CARLSBAD       SUNNY     62  54  74 CALM      30.21R
DRYDEN           N/A     68  62  81 CALM      30.19R
FORT STOCKTON  SUNNY     71  56  58 S7        30.21R
GUAD PASS      SUNNY     60  45  57 SW9       30.34R
HOBBS          SUNNY     63  61  94 S9        30.24R
MARFA          SUNNY     63  54  72 CALM      30.34R
MIDLAND AIRPK  SUNNY     69  60  73 S8        30.21S
MIDLAND INTL   SUNNY     69  59  70 S9        30.20R
ODESSA         SUNNY     68  59  73 SW12      30.22R
PECOS          SUNNY     57  56  96 CALM      30.20R FOG
PRESIDIO       FAIR      70  56  60 CALM      30.24R
SEMINOLE       SUNNY     62  59  88 SW5       30.23R
SNYDER         SUNNY     65  60  84 S5        30.21R
WINK           SUNNY     66  58  75 S7        30.19R
$$
...OTHER STATIONS IN TEXAS...

CITY           SKY/WX    TMP DP  RH WIND       PRES   REMARKS
ABILENE        SUNNY     73  59  61 SW7       30.18R
AMARILLO       SUNNY     65  51  60 SW15      30.19R
AUSTIN         SUNNY     70  61  73 SE3       30.19R
BROWNSVILLE    SUNNY     76  67  73 NW5       30.17R
CORPUS CHRISTI SUNNY     72  64  76 N5        30.18R
DALLAS FTW     SUNNY     72  59  63 S10       30.15R
DEL RIO        SUNNY     70  62  76 E7        30.17R
EL PASO        SUNNY     61  49  64 N5        30.25R
HOUSTON INT    SUNNY     70  57  63 N3        30.19R
LUBBOCK        SUNNY     65  57  75 SW12      30.21R
SAN ANGELO     SUNNY     68  58  70 CALM      30.20R
SAN ANTONIO    SUNNY     74  57  55 W7        30.20R
WACO           SUNNY     73  60  63 S7        30.18R
WICHITA FALLS  NOT AVBL
$$
...OTHER LOCATIONS IN NEW MEXICO...

CITY           SKY/WX    TMP DP  RH WIND       PRES   REMARKS
ALAMAGORDO     NOT AVBL
ALBUQUERQUE    SUNNY     54  29  38 N6        30.33R
CANNON AFB     SUNNY     62  51  69 SW5       30.24R
CLOVIS         SUNNY     63  50  63 S5        30.26R
HOLLOMAN AFB   MOSUNNY   57  47  69 CALM      30.26R
ROSWELL        SUNNY     58  52  80 CALM      30.22R
RUIDOSO        SUNNY     61  41  48 SW6       30.40R
SANTA FE       SUNNY     50  23  34 N12       30.36R
TRUTH OR CONSE SUNNY     61  43  51 N6        30.29R
TUCUMCARI      SUNNY     60  39  45 W8        30.20R
$$



USA.gov is the U.S. government's official web portal to all federal, state and local government web resources and services.